• en Belgique
  • Liste des pays
  • À 7 jours
  • Température de l'eau
  • Carte satellitaire
  • Carte météo
  • Widgets météo
  • user-avatar
    Se connecter

    Météo par heure à Skaliszkiejmy

    Ce jour, 13 Novembre, Mardi

    Heure Température Précipitation Vent Pression Humidité
    00:00 +5°C° 0 mm 6 m/s 755 mmHg 82%
    01:00 +5°C° 0 mm 5 m/s 754 mmHg 83%
    02:00 +4°C° 0 mm 6 m/s 754 mmHg 84%
    03:00 +4°C° 0 mm 6 m/s 754 mmHg 85%
    04:00 +4°C° 0 mm 6 m/s 754 mmHg 86%
    05:00 +4°C° 0 mm 6 m/s 754 mmHg 87%
    06:00 +4°C° 0 mm 6 m/s 754 mmHg 88%
    07:00 +4°C° 0 mm 6 m/s 753 mmHg 89%
    08:00 +5°C° 0 mm 6 m/s 753 mmHg 88%
    09:00 +5°C° 0 mm 6 m/s 753 mmHg 86%
    10:00 +7°C° 0 mm 6 m/s 753 mmHg 84%
    11:00 +7°C° 0 mm 6 m/s 753 mmHg 83%
    12:00 +8°C° 0 mm 6 m/s 753 mmHg 82%
    13:00 +8°C° 0 mm 4 m/s 752 mmHg 82%
    14:00 +8°C° 0.7 mm 4 m/s 752 mmHg 84%
    15:00 +8°C° 0.7 mm 4 m/s 752 mmHg 86%
    16:00 +8°C° 0.7 mm 5 m/s 752 mmHg 88%
    17:00 +8°C° 1.5 mm 4 m/s 751 mmHg 90%
    18:00 +8°C° 1.5 mm 4 m/s 751 mmHg 92%
    19:00 +7°C° 1.5 mm 4 m/s 751 mmHg 94%
    20:00 +7°C° 1 mm 4 m/s 751 mmHg 93%
    21:00 +7°C° 1 mm 4 m/s 751 mmHg 93%
    22:00 +7°C° 1 mm 4 m/s 751 mmHg 93%
    23:00 +7°C° 0.4 mm 4 m/s 751 mmHg 93%

    Demain, 14 Novembre, Mercredi

    Heure Température Précipitation Vent Pression Humidité
    00:00 +7°C° 0.4 mm 4 m/s 751 mmHg 93%
    01:00 +7°C° 0.4 mm 4 m/s 751 mmHg 93%
    02:00 +7°C° 1.3 mm 4 m/s 751 mmHg 92%
    03:00 +7°C° 1.3 mm 5 m/s 751 mmHg 92%
    04:00 +7°C° 1.3 mm 5 m/s 751 mmHg 92%
    05:00 +7°C° 1 mm 5 m/s 752 mmHg 92%
    06:00 +7°C° 1 mm 5 m/s 752 mmHg 91%
    07:00 +7°C° 1 mm 5 m/s 752 mmHg 91%
    08:00 +7°C° 0.1 mm 5 m/s 752 mmHg 90%
    09:00 +7°C° 0.1 mm 5 m/s 753 mmHg 89%
    10:00 +8°C° 0.1 mm 5 m/s 753 mmHg 87%
    11:00 +8°C° 0.1 mm 5 m/s 753 mmHg 85%
    12:00 +8°C° 0.1 mm 4 m/s 754 mmHg 84%
    13:00 +8°C° 0.1 mm 4 m/s 754 mmHg 82%
    14:00 +8°C° 0 mm 4 m/s 755 mmHg 84%
    15:00 +9°C° 0 mm 3 m/s 755 mmHg 86%
    16:00 +8°C° 0 mm 3 m/s 755 mmHg 89%
    17:00 +8°C° 0 mm 3 m/s 756 mmHg 91%
    18:00 +7°C° 0 mm 2 m/s 756 mmHg 93%
    19:00 +7°C° 0 mm 2 m/s 756 mmHg 95%
    20:00 +7°C° 0 mm 2 m/s 757 mmHg 95%
    21:00 +7°C° 0 mm 3 m/s 757 mmHg 95%
    22:00 +7°C° 0 mm 3 m/s 757 mmHg 95%
    23:00 +6°C° 0 mm 2 m/s 758 mmHg 96%

    Après-demain, 15 Novembre, Jeudi

    Heure Température Précipitation Vent Pression Humidité
    00:00 +6°C° 0 mm 2 m/s 758 mmHg 96%
    01:00 +6°C° 0 mm 2 m/s 758 mmHg 96%
    02:00 +6°C° 0 mm 2 m/s 759 mmHg 96%
    03:00 +6°C° 0 mm 2 m/s 759 mmHg 96%
    04:00 +7°C° 0 mm 1 m/s 759 mmHg 95%
    05:00 +7°C° 0 mm 1 m/s 759 mmHg 95%
    06:00 +7°C° 0 mm 1 m/s 760 mmHg 95%
    07:00 +7°C° 0 mm 1 m/s 760 mmHg 94%
    08:00 +8°C° 0 mm 1 m/s 760 mmHg 91%
    09:00 +8°C° 0 mm 1 m/s 761 mmHg 88%
    10:00 +7°C° 0 mm 0 m/s 761 mmHg 85%
    11:00 +8°C° 0 mm 0 m/s 761 mmHg 82%
    12:00 +9°C° 0 mm 1 m/s 761 mmHg 79%
    13:00 +9°C° 0 mm 1 m/s 761 mmHg 76%
    14:00 +9°C° 0 mm 1 m/s 761 mmHg 79%
    15:00 +7°C° 0 mm 0 m/s 762 mmHg 81%
    16:00 +6°C° 0 mm 0 m/s 762 mmHg 83%
    17:00 +6°C° 0 mm 0 m/s 762 mmHg 85%
    18:00 +5°C° 0 mm 0 m/s 762 mmHg 87%
    19:00 +5°C° 0 mm 0 m/s 763 mmHg 88%
    20:00 +6°C° 0 mm 1 m/s 763 mmHg 89%
    21:00 +5°C° 0 mm 1 m/s 763 mmHg 90%
    22:00 +5°C° 0 mm 1 m/s 764 mmHg 91%
    23:00 +5°C° 0 mm 1 m/s 764 mmHg 91%

    16 Novembre, Vendredi

    Heure Température Précipitation Vent Pression Humidité
    00:00 +5°C° 0 mm 1 m/s 764 mmHg 91%
    01:00 +4°C° 0 mm 1 m/s 764 mmHg 92%
    02:00 +4°C° 0 mm 1 m/s 765 mmHg 92%
    03:00 +4°C° 0 mm 1 m/s 765 mmHg 92%
    04:00 +4°C° 0 mm 1 m/s 765 mmHg 92%
    05:00 +4°C° 0 mm 1 m/s 765 mmHg 93%
    06:00 +3°C° 0 mm 1 m/s 765 mmHg 93%
    07:00 +3°C° 0 mm 1 m/s 766 mmHg 93%
    08:00 +4°C° 0 mm 1 m/s 766 mmHg 89%
    09:00 +5°C° 0 mm 1 m/s 766 mmHg 86%
    10:00 +6°C° 0 mm 1 m/s 766 mmHg 83%
    11:00 +7°C° 0 mm 1 m/s 767 mmHg 80%
    12:00 +7°C° 0 mm 1 m/s 767 mmHg 77%
    13:00 +8°C° 0 mm 1 m/s 767 mmHg 75%
    14:00 +7°C° 0 mm 1 m/s 767 mmHg 79%
    15:00 +6°C° 0 mm 1 m/s 767 mmHg 83%
    16:00 +5°C° 0 mm 1 m/s 767 mmHg 87%
    17:00 +5°C° 0 mm 1 m/s 767 mmHg 88%
    18:00 +4°C° 0 mm 1 m/s 767 mmHg 89%
    19:00 +4°C° 0 mm 1 m/s 767 mmHg 90%
    20:00 +4°C° 0 mm 1 m/s 767 mmHg 91%
    21:00 +4°C° 0 mm 1 m/s 767 mmHg 91%
    22:00 +2°C° 0 mm 2 m/s 767 mmHg 92%
    23:00 +3°C° 0 mm 1 m/s 767 mmHg 91%

    17 Novembre, Samedi

    Heure Température Précipitation Vent Pression Humidité
    00:00 +3°C° 0 mm 1 m/s 768 mmHg 91%
    01:00 +3°C° 0 mm 1 m/s 768 mmHg 90%
    02:00 +3°C° 0 mm 1 m/s 768 mmHg 89%
    03:00 +4°C° 0 mm 1 m/s 767 mmHg 88%
    04:00 +4°C° 0 mm 1 m/s 767 mmHg 87%
    05:00 +4°C° 0 mm 1 m/s 767 mmHg 87%
    06:00 +3°C° 0 mm 1 m/s 767 mmHg 87%
    07:00 +3°C° 0 mm 1 m/s 767 mmHg 87%
    08:00 +4°C° 0 mm 1 m/s 767 mmHg 84%
    09:00 +5°C° 0 mm 1 m/s 767 mmHg 81%
    10:00 +4°C° 0 mm 2 m/s 767 mmHg 78%
    11:00 +5°C° 0 mm 2 m/s 767 mmHg 76%
    12:00 +5°C° 0 mm 2 m/s 766 mmHg 75%
    13:00 +6°C° 0 mm 2 m/s 766 mmHg 73%
    14:00 +5°C° 0 mm 2 m/s 766 mmHg 77%
    15:00 +5°C° 0 mm 2 m/s 765 mmHg 80%
    16:00 +4°C° 0 mm 2 m/s 765 mmHg 84%
    17:00 +4°C° 0 mm 2 m/s 765 mmHg 86%
    18:00 +2°C° 0 mm 3 m/s 764 mmHg 87%
    19:00 +2°C° 0 mm 3 m/s 764 mmHg 88%
    20:00 +2°C° 0 mm 3 m/s 763 mmHg 89%
    21:00 +2°C° 0 mm 3 m/s 763 mmHg 90%
    22:00 +2°C° 0 mm 3 m/s 763 mmHg 92%
    23:00 +3°C° 0 mm 3 m/s 762 mmHg 93%

    18 Novembre, Dimanche

    Heure Température Précipitation Vent Pression Humidité
    00:00 +3°C° 0 mm 4 m/s 762 mmHg 94%
    01:00 +3°C° 0 mm 4 m/s 761 mmHg 95%
    02:00 +3°C° 0 mm 4 m/s 760 mmHg 95%
    03:00 +4°C° 0 mm 4 m/s 760 mmHg 95%
    04:00 +4°C° 0 mm 4 m/s 759 mmHg 96%
    05:00 +4°C° 0 mm 4 m/s 759 mmHg 95%
    06:00 +4°C° 0 mm 4 m/s 758 mmHg 94%
    07:00 +4°C° 0 mm 4 m/s 758 mmHg 93%
    08:00 +3°C° 0 mm 4 m/s 758 mmHg 90%
    09:00 +2°C° 0 mm 5 m/s 758 mmHg 87%
    10:00 +2°C° 0 mm 5 m/s 758 mmHg 84%
    11:00 +2°C° 0 mm 5 m/s 757 mmHg 82%
    12:00 +2°C° 0 mm 5 m/s 757 mmHg 80%
    13:00 +2°C° 0 mm 5 m/s 757 mmHg 78%
    14:00 +2°C° 0 mm 5 m/s 757 mmHg 78%
    15:00 +2°C° 0 mm 5 m/s 757 mmHg 78%
    16:00 +2°C° 0 mm 5 m/s 757 mmHg 78%
    17:00 +2°C° 0 mm 5 m/s 757 mmHg 79%
    18:00 +2°C° 0 mm 5 m/s 757 mmHg 79%
    19:00 +2°C° 0 mm 5 m/s 757 mmHg 80%
    20:00 +1°C° 0 mm 5 m/s 757 mmHg 81%
    21:00 +1°C° 0 mm 5 m/s 757 mmHg 82%
    22:00 0°C° 0 mm 5 m/s 757 mmHg 84%
    23:00 +1°C° 0 mm 5 m/s 756 mmHg 84%
    Voir plus